Location: Boisset
(45.5150°N, 4.1063°E)
Time: 01:39:44
(UTC+00:00)

Daily predictions for brighter satellites

Satellite Brightness Start Highest point End
(mag) Time Altitude Azimuth Time Altitude Azimuth Time Altitude Azimuth
Cosmos 2263 Rocket 4.4 01:00:02 10° N 01:03:49 20° NE 01:03:49 20° NE
Lacrosse 5 4.5 01:22:28 16° NE 01:22:28 16° NE 01:23:33 10° NE
Resurs 1-4 Rocket 4.2 01:25:08 10° NNE 01:26:56 22° NNE 01:26:56 22° NNE
SL-16 R/B 4.3 01:35:43 22° NNW 01:35:43 22° NNW 01:37:45 10° NNW
CZ-2D R/B 4.2 01:31:42 10° NNE 01:33:36 23° NNE 01:33:36 23° NNE
USA 267 4.4 01:44:47 10° ENE 01:49:37 32° ESE 01:49:37 32° ESE
ARIANE 5 R/B 4.5 01:46:58 10° NE 01:50:05 24° ENE 01:50:05 24° ENE
ATLAS 5 CENTAUR R/B 4.4 01:57:35 13° N 01:57:35 13° N 01:59:01 10° NNE
Gbstr 26 Del rocket 4.5 02:03:40 78° ENE 02:03:40 78° ENE 02:10:57 10° ESE
ATLAS 2AS CENTAUR R/B 4.3 01:57:18 10° NNW 02:04:06 33° NNE 02:10:26 10° E
SL-4 R/B 4.3 02:21:54 24° E 02:21:54 24° E 02:24:05 10° ENE
ADEOS II 3.2 02:15:04 10° NNE 02:18:19 39° NNE 02:18:19 39° NNE
IDEFIX/ARIANE 42P 3.6 02:17:22 10° NNE 02:22:19 39° E 02:22:24 39° E
USA 234 4.1 02:20:09 10° E 02:26:20 47° NNE 02:30:48 19° NW
Cosmos 1238 Rocket 4.0 02:27:28 10° N 02:33:16 71° N 02:33:16 71° N
Cosmos 1605 Rocket 4.4 02:27:49 10° N 02:34:11 62° ENE 02:37:19 31° SSE
Cosmos 2360 Rocket 4.3 02:33:12 13° SE 02:36:31 20° E 02:40:35 10° NE
Cosmos 1535 Rocket 4.4 02:30:15 10° N 02:36:27 84° NNW 02:36:27 84° NNW
H-2A R/B 4.2 02:34:04 10° ESE 02:37:44 26° ENE 02:41:27 10° N
Cosmos 1697 Rocket 4.0 02:40:57 28° NNW 02:40:57 28° NNW 02:44:35 10° N
Cosmos 1980 Rocket 2.8 02:47:19 44° NNW 02:47:19 44° NNW 02:51:48 10° NNE
Cosmos 2263 Rocket 3.7 02:43:10 10° NNW 02:45:20 24° NNW 02:45:20 24° NNW
ASTEX 1 3.7 02:47:12 10° N 02:51:25 63° N 02:51:25 63° N
Cosmos 2322 Rocket 2.8 02:54:20 43° SSE 02:55:43 53° ESE 03:01:16 10° NE
Cosmos 1898 Rocket 3.7 02:52:02 10° NNW 02:57:19 72° ENE 03:02:36 10° SSE
Cosmos 1666 4.0 02:56:02 10° N 02:59:07 39° NE 02:59:07 39° NE
Spot 4 Rocket 4.1 02:55:16 10° NNE 03:00:26 75° ESE 03:01:01 67° SSE
Meteor 1-11 Rocket 4.2 02:56:03 10° N 03:01:44 59° ENE 03:07:16 10° SSE
Lacrosse 5 3.2 03:01:39 27° NNW 03:02:04 28° NNW 03:06:26 10° NE
Cosmos 921 Rocket 4.2 03:05:07 34° N 03:05:07 34° N 03:07:40 10° NNE
IRS-1C 4.4 03:00:35 10° N 03:05:14 52° NW 03:05:14 52° NW
Cosmos 1812 4.0 03:08:14 35° N 03:08:14 35° N 03:10:34 10° N
Meteor 2-7 Rocket 4.5 03:06:37 74° W 03:06:45 74° WNW 03:12:16 10° N
SL-16 R/B 2.2 03:06:39 60° S 03:07:43 80° ESE 03:13:25 10° NNE
USA 307 4.4 03:08:53 27° NNW 03:09:02 27° N 03:12:43 10° NE
Meteor 1-27 Rocket 4.5 03:05:04 17° SSE 03:09:29 54° E 03:15:13 10° NNE
Resurs 1-4 Rocket 4.2 03:06:30 10° NNW 03:08:01 14° NW 03:08:01 14° NW
ERBS 4.4 03:12:22 23° NNE 03:12:22 23° NNE 03:14:04 10° NE
IRIDIUM 104 4.4 03:07:10 10° N 03:12:26 78° E 03:15:22 27° S
USA 308 4.4 03:12:08 27° NNW 03:12:26 27° N 03:16:07 10° NE
Cosmos 1727 Rocket 4.2 03:09:26 23° S 03:13:35 74° E 03:19:53 10° NNE
Cosmos 1339 Rocket 4.4 03:12:47 56° SW 03:13:58 68° W 03:20:09 10° N
CZ-2D R/B 4.2 03:13:33 10° NNW 03:14:55 13° NW 03:14:55 13° NW
Cosmos 1937 Rocket 3.5 03:11:40 10° NNW 03:16:50 76° ENE 03:21:58 10° SSE
FALCON 9 DEB 4.2 03:20:10 43° NE 03:20:10 43° NE 03:22:38 10° NE
CZ-4C R/B 3.8 03:20:03 48° NNE 03:20:03 48° NNE 03:22:48 10° N
Cosmos 841 Rocket 4.2 03:18:31 23° S 03:21:32 52° ESE 03:26:38 10° NNE
IRIDIUM 114 4.2 03:16:19 10° N 03:21:34 87° W 03:24:29 27° S
Cosmos 1536 3.3 03:20:43 10° N 03:24:46 61° E 03:28:46 10° SSE
Cosmos 1763 Rocket 3.4 03:25:16 54° SW 03:26:28 77° WNW 03:31:47 10° NNE
CZ-2D R/B 3.9 03:23:45 10° N 03:27:24 49° NW 03:27:24 49° NW
USA 32 4.1 03:24:43 10° N 03:30:00 80° E 03:35:15 10° S
ARIANE 5 R/B 2.9 03:25:41 10° N 03:30:25 42° WNW 03:30:25 42° WNW
IRIDIUM 103 4.2 03:25:30 10° N 03:30:43 73° W 03:33:37 27° S
NOSS 3-4 (A) 3.8 03:25:03 10° NW 03:32:06 88° NE 03:39:54 10° SE
NOSS 3-4 (C) 3.8 03:25:10 10° NW 03:32:12 87° NE 03:40:01 10° SE
Cosmos 1707 Rocket 3.4 03:32:28 48° S 03:33:40 89° NW 03:38:03 10° N
USA 267 3.2 03:27:28 10° NE 03:34:01 78° NW 03:36:57 36° WSW
ADEOS Rocket 3.5 03:31:07 10° SSE 03:37:35 62° ENE 03:43:27 10° N
CZ-4B R/B 3.6 03:37:42 10° SE 03:40:27 27° ENE 03:43:18 10° N
Meteor 1-5 Rocket 4.4 03:36:11 10° NNW 03:41:12 43° W 03:42:00 40° WSW
ERS-2 2.7 03:38:02 10° SSE 03:41:38 59° ENE 03:45:16 10° N
Cosmos 540 Rocket 3.5 03:38:54 23° SSW 03:42:07 77° ESE 03:47:19 10° NNE
MSX 3.8 03:39:45 10° N 03:45:27 62° WNW 03:48:33 27° SW
Cosmos 44 Rocket 3.2 03:44:48 36° SSW 03:46:44 87° SE 03:51:38 10° NE
Cosmos 1733 Rocket 3.0 03:43:38 10° N 03:47:59 82° E 03:52:19 10° S
IRIDIUM 106 4.5 03:43:56 10° NNW 03:48:58 50° W 03:51:58 23° SSW
Cosmos 1743 3.8 03:46:56 10° N 03:50:38 46° ENE 03:54:18 10° SSE
Cosmos 990 Rocket 4.4 03:46:09 10° NW 03:50:54 36° WSW 03:55:38 10° SSW
PAYLOAD A 3.7 03:48:19 10° NNE 03:53:02 88° W 03:57:13 13° SSW
Landsat 5 3.7 03:50:47 10° S 03:55:11 53° W 03:59:32 10° NNW
Cosmos 2333 Rocket 3.7 03:50:40 10° S 03:55:52 36° ESE 04:01:04 10° NE
ATLAS 2AS CENTAUR R/B 2.7 03:48:23 10° NW 03:55:54 82° SW 04:02:45 10° SSE
Cosmos 2173 Rocket 4.0 03:49:52 10° N 03:56:16 86° W 04:02:38 10° S
BREEZE M DEB (TANK) 4.1 03:44:47 10° WNW 03:57:55 45° SW 04:02:07 10° SSE
CZ-2C R/B 3.3 03:55:08 10° N 03:58:40 36° WNW 03:58:54 36° W
ADEOS II 3.9 03:56:36 10° NNW 03:59:15 14° NW 03:59:15 14° NW
SL-4 R/B 2.5 03:57:30 34° W 03:59:21 60° NNW 04:04:06 10° ENE
IDEFIX/ARIANE 42P 3.4 03:57:12 10° N 04:01:46 31° WNW 04:03:12 27° W
PSLV R/B 3.4 03:58:08 10° N 04:02:20 74° WNW 04:05:43 15° SSW
Cosmos 1570 Rocket 4.0 03:58:30 19° SSW 04:02:23 75° WNW 04:07:46 10° NNE
BREEZE-M DEB (TANK) 2.9 03:59:36 24° WSW 04:03:37 70° SSE 04:06:38 10° E
USA 276 2.1 04:03:18 38° WNW 04:04:23 81° NNE 04:07:37 10° ESE
Cosmos 1862 Rocket 3.4 04:04:09 10° SSW 04:08:31 79° W 04:12:53 10° N
USA 234 3.2 04:02:36 10° SE 04:09:08 74° SW 04:15:42 10° NW
BREEZE-M DEB (TANK) 3.6 04:08:00 28° WNW 04:09:39 59° N 04:17:47 10° ENE
H-2A R/B 2.7 04:09:29 10° SSW 04:13:32 35° W 04:17:41 10° NNW
CZ-4C R/B 3.6 04:06:31 10° NNW 04:13:32 59° NE 04:21:39 10° SE
SAR-Lupe-4 4.0 04:11:04 10° SSE 04:14:36 64° ENE 04:18:11 10° N
ALOS 3.0 04:11:36 10° NNE 04:16:12 55° E 04:20:46 10° S
Cosmos 1689 Rocket 4.3 04:13:59 10° SE 04:16:37 29° ENE 04:19:16 10° N
PKM 3.9 04:14:43 16° WNW 04:17:26 59° SW 04:21:22 10° SE
FENGYUN 3A 4.2 04:13:13 10° NNE 04:18:35 61° E 04:23:55 10° S
Cosmos 2360 Rocket 2.2 04:15:02 14° SW 04:19:58 65° WNW 04:25:37 10° NNE
Meteor 1-4 Rocket 4.5 04:21:08 14° NW 04:21:08 14° NW 04:22:36 10° NNW
COSMOS 2455 4.5 04:15:58 10° NNW 04:21:28 35° NE 04:26:55 10° ESE
CZ-2C R/B 2.7 04:18:55 10° N 04:23:57 54° WNW 04:29:00 10° SSW
Cosmos 1975 3.8 04:20:12 10° N 04:24:08 51° ENE 04:28:01 10° SSE
Cosmos 372 Rocket 4.0 04:22:53 10° NNW 04:27:54 54° WSW 04:32:50 10° S
Cosmos 2016 Rocket 3.9 04:21:57 10° NNW 04:28:02 73° W 04:34:06 10° S
Cosmos 1980 Rocket 4.2 04:29:56 10° NW 04:31:46 11° NW 04:33:37 10° NNW
Cosmos 1484 Rocket 2.9 04:29:28 10° NNE 04:33:29 88° E 04:37:29 10° SSW
SAR-Lupe-1 3.9 04:30:06 10° SSE 04:33:40 80° WSW 04:37:16 10° NNW
Cosmos 2061 Rocket 4.0 04:28:29 10° NNW 04:34:53 67° W 04:41:13 10° S
ATLAS CENTAUR Rocket 4.4 04:28:24 13° WSW 04:35:14 21° SSW 04:39:21 10° SSE
Cosmos 1844 Rocket 2.8 04:31:26 10° NW 04:36:53 51° WSW 04:42:20 10° S
Cosmos 1515 3.6 04:33:10 10° S 04:36:58 90° WNW 04:40:46 10° N
Cosmos 2233 Rocket 4.3 04:31:36 10° N 04:37:46 74° E 04:43:53 10° SSE
Cosmos 2322 Rocket 3.2 04:36:12 14° WSW 04:40:04 29° NW 04:45:00 10° N
Cosmos 2278 Rocket 3.6 04:36:27 10° NNW 04:41:48 41° NE 04:47:06 10° SE
Okean 1 3.4 04:41:02 10° SSW 04:44:59 55° W 04:48:59 10° N
Cosmos 1844 3.8 04:40:17 10° NW 04:45:41 53° WSW 04:51:03 10° S
Meteor 1-31 Rocket 2.7 04:42:31 10° N 04:46:23 82° WNW 04:50:14 10° SSW
Lacrosse 5 3.7 04:42:24 10° NW 04:46:24 23° N 04:50:24 10° ENE
COSMO-SKYMED 1 2.9 04:43:02 10° SSE 04:47:21 72° ENE 04:51:42 10° N
USA 307 4.4 04:46:13 10° NW 04:50:01 30° NNE 04:53:48 10° ENE
Cosmos 1725 Rocket 4.0 04:44:37 10° NNW 04:50:41 59° W 04:56:43 10° S
Meteor 2-9 Rocket 4.1 04:45:59 10° NNW 04:51:29 79° W 04:56:48 10° S
Cosmos 1437 Rocket 3.3 04:48:17 10° SW 04:51:50 37° WNW 04:55:27 10° N
SL-16 R/B 3.6 04:48:33 11° W 04:52:31 21° NW 04:56:44 10° N
Cosmos 2298 Rocket 4.2 04:47:36 10° NNW 04:52:43 49° WSW 04:57:47 10° S
deb Chang Zheng 4 3.8 04:49:13 10° N 04:53:22 49° WNW 04:57:27 10° SW
USA 308 4.4 04:49:36 10° NW 04:53:25 31° NNE 04:57:13 10° ENE
SJ-12 4.2 04:49:34 10° NNE 04:53:43 74° ESE 04:57:51 10° S
Cosmos 1782 Rocket 3.6 04:57:23 10° N 05:01:53 79° W 05:06:20 10° S
Cosmos 1908 Rocket 4.0 04:58:50 10° NNW 05:03:04 42° W 05:07:16 10° SSW
Cosmos 1703 Rocket 3.6 05:00:37 10° SSW 05:04:52 56° WNW 05:09:10 10° N
Okean 1-7 3.0 05:01:16 10° SSW 05:05:27 60° W 05:09:41 10° N
Cosmos 2219 Rocket 2.2 05:02:11 10° SSW 05:07:50 72° WNW 05:13:33 10° NNE
CZ-4B R/B 2.5 05:06:23 10° N 05:10:01 75° WNW 05:13:35 10° SSW
Intercosmos 25 4.2 05:07:28 10° SW 05:10:21 22° WNW 05:12:57 10° NNW
Cosmos 1125 Rocket 3.7 05:06:46 10° NNW 05:11:55 54° WSW 05:17:01 10° S
